Presure
294 315 332 305 194 260 264 226 198 199 183 200 197 191 159 187 178 174 187 170 160 157 155 158 160 153 147 149 151 151 150 148 149 154 153 154 153 153 162 99 156 163 152 166
286 300 316 317 323 265 270 225 220 204 194 203 201 184 192 180 185 186 175 179 175 134 174 168 159 158 153 151 157 159 161 153 154 157 154 149 156 160 163 161 165 167 164 175
311 281 320 291 309 359 272 262 223 222 183 189 200 200 195 191 185 187 190 180 174 176 171 164 159 164 169 159 163 162 159 151 157 164 165 162 161 160 161 163 166 173 180 184
300 274 289 310 302 347 365 268 249 225 212 190 191 185 196 196 190 187 188 189 187 174 169 173 176 169 169 161 162 164 167 162 161 161 159 161 167 167 170 177 183 189 186 181
285 331 290 287 298 337 344 357 262 218 213 212 197 187 196 199 195 190 189 176 172 172 176 176 170 171 175 176 165 166 167 164 164 173 176 174 173 143 143 136 160 190 158 151
273 283 302 309 303 300 333 359 264 250 226 217 211 197 190 197 197 193 194 194 189 186 180 183 185 174 176 179 178 176 176 174 175 158 159 176 170 177 181 181 182 172 187 171
326 276 298 291 293 324 294 357 359 261 245 232 224 208 205 216 192 187 194 183 176 177 188 159 176 178 182 183 180 176 172 176 172 173 142 173 180 187 182 184 158 177 182 192
311 323 271 300 283 293 320 322 362 337 253 235 228 225 206 196 226 213 201 193 194 187 178 173 173 186 184 186 155 167 173 180 155 166 171 182 177 185 188 188 189 193 196 199
295 315 311 276 304 307 302 306 349 356 319 246 233 230 228 225 205 197 215 213 193 193 190 182 180 181 177 184 187 184 185 184 179 167 185 177 163 187 188 191 195 199 202 210
302 315 314 315 319 314 337 333 332 338 336 296 239 238 232 229 232 217 213 209 207 194 201 201 197 190 185 180 178 180 176 176 184 185 189 191 190 193 182 199 204 210 247 234
288 288 300 299 307 308 328 335 327 329 334 319 292 236 246 247 235 233 225 226 223 220 191 187 188 207 200 195 185 187 187 188 184 183 190 190 187 188 183 186 216 219 232 243
280 277 281 273 280 284 312 305 324 329 309 327 313 287 239 241 255 249 232 225 221 222 223 220 203 201 203 209 207 198 193 187 193 198 202 233 235 252 243 251 237 243 240 237
275 284 291 301 289 283 291 295 294 296 303 324 318 301 270 265 259 230 248 244 238 232 229 224 220 217 218 221 219 184 216 215 135 237 227 230 240 249 239 240 233 238 248 277
266 265 264 266 263 263 263 265 272 281 275 292 302 300 276 265 260 265 257 252 247 244 245 244 238 233 243 244 250 244 254 250 249 190 238 240 238 232 234 243 262 291 267 269
268 266 257 259 264 267 268 267 275 259 262 271 284 289 271 262 254 258 260 257 255 254 254 251 249 249 254 250 249 246 237 237 240 240 235 233 234 243 276 287 279 275 259 269
264 256 274 261 263 261 265 267 268 269 277 277 260 279 285 261 254 253 252 254 254 246 244 244 243 240 235 236 234 235 231 227 225 234 243 264 275 277 285 268 263 255 275 265
281 278 275 273 263 263 261 261 259 261 263 270 276 267 283 282 265 253 251 249 247 249 237 233 236 240 238 240 231 235 237 242 248 252 267 270 268 281 261 253 255 264 268 276
277 277 277 285 284 279 278 273 270 268 256 255 261 272 279 277 270 259 245 238 239 243 242 237 238 230 229 235 237 236 238 254 257 265 273 273 274 260 242 251 257 266 257 247
282 268 268 269 268 277 278 279 285 287 270 254 264 262 262 262 259 268 262 246 237 232 232 230 231 231 234 231 242 256 257 264 277 274 259 264 258 251 245 255 258 242 255 248
255 265 273 269 264 265 266 269 270 272 274 263 250 260 257 256 250 250 250 255 258 256 257 254 250 255 259 248 250 252 268 267 257 257 246 252 250 282 242 261 251 258 258 219
285 280 269 279 266 262 264 272 276 273 269 265 268 265 244 243 259 257 261 257 255 252 252 256 260 264 275 266 266 264 256 249 244 244 245 243 250 241 248 266 200 250 225 234
267 278 292 273 277 265 252 254 259 266 268 270 271 269 262 268 254 255 252 250 251 251 251 268 263 249 255 257 251 248 239 239 244 239 256 250 254 233 234 204 209 220 238 235
262 260 262 287 293 278 272 252 256 250 256 260 263 262 264 261 265 268 267 267 270 263 250 246 249 250 247 240 240 231 235 243 251 232 237 258 246 212 205 205 210 224 225 233
269 256 252 258 272 287 293 283 275 259 243 242 247 252 255 258 259 258 256 254 251 251 248 250 247 238 236 226 225 229 234 243 240 247 240 244 227 241 213 213 216 222 228 234
243 265 254 253 253 257 271 275 277 282 277 265 261 258 253 248 248 246 246 246 250 253 247 239 233 226 215 224 229 244 247 240 225 250 237 275 236 229 224 222 232 230 234 232
245 260 255 249 248 247 241 247 254 273 278 281 283 283 281 277 278 280 274 271 253 236 225 221 225 225 221 238 246 243 240 243 236 233 270 265 243 217 265 239 242 245 243 244
Wind_Speed
94 81 69 98 79 120 125 127 114 122 107 124 120 118 77 109 96 92 105 103 101 98 96 95 99 98 80 84 91 93 92 87 86 96 96 101 88 89 100 52 93 100 78 103
99 82 68 82 85 118 122 123 125 119 111 118 122 106 115 102 109 107 95 101 105 60 105 104 102 99 94 88 99 100 101 95 98 101 92 86 100 103 101 100 106 107 102 111
71 93 59 93 89 57 115 121 125 122 103 110 116 120 116 114 110 108 109 101 95 101 101 99 96 99 102 97 102 102 100 87 94 103 104 101 99 103 100 101 104 110 111 110
69 92 82 66 81 56 54 116 125 120 123 110 108 103 116 117 116 106 104 106 107 98 93 99 102 100 102 98 98 100 104 100 98 97 94 96 103 103 109 113 113 114 107 100
73 42 73 81 79 51 61 64 120 117 122 118 111 102 113 116 117 117 111 91 91 96 100 102 97 98 104 105 99 99 100 98 99 104 105 105 104 70 72 70 88 111 85 84
81 74 61 40 64 77 55 49 115 122 121 118 117 109 105 113 116 111 113 113 107 103 99 104 108 98 102 107 106 104 104 101 103 85 87 103 94 103 104 100 100 98 109 94
48 73 58 66 68 40 73 45 56 117 121 121 119 109 109 119 104 103 111 100 91 92 105 79 99 102 107 110 108 102 99 104 101 99 73 103 108 114 106 105 85 103 106 117
40 47 66 53 66 63 45 56 52 75 113 116 120 117 103 102 118 121 116 108 109 102 93 89 90 104 106 108 82 94 100 106 85 92 97 109 101 111 114 112 112 119 125 124
38 34 42 58 50 51 54 53 35 58 80 114 119 118 114 113 108 108 116 120 108 107 104 97 96 98 96 104 108 108 109 108 105 93 112 103 91 113 114 116 123 126 126 128
27 29 30 31 31 38 29 35 43 45 67 86 112 119 119 116 116 109 110 109 113 104 111 113 111 107 104 100 99 101 98 99 108 111 114 119 118 118 107 123 125 129 109 112
28 31 31 30 28 28 24 33 37 40 53 72 86 107 111 118 118 112 108 108 110 112 102 97 100 114 115 116 106 108 108 111 108 106 113 112 109 108 108 108 119 122 114 104
26 27 28 28 30 29 15 18 23 36 44 61 73 85 105 106 108 116 112 108 106 106 108 109 107 108 111 115 117 115 113 108 113 117 119 118 115 101 104 98 105 102 101 103
21 25 26 28 25 21 16 18 18 22 26 39 60 72 84 90 95 103 106 110 113 113 112 109 107 105 106 109 110 93 113 111 57 108 106 104 98 93 96 96 99 101 107 79
20 20 20 21 23 23 24 24 26 27 34 30 38 60 74 78 83 83 89 92 97 100 103 105 108 107 104 101 93 100 94 94 90 78 95 94 93 92 96 101 98 67 76 67
25 27 25 25 26 25 26 26 27 32 34 35 39 52 68 70 79 80 77 79 80 79 80 83 85 85 80 81 81 82 86 87 87 87 90 91 92 97 81 68 64 61 64 59
28 26 36 31 31 29 29 28 30 30 27 34 46 45 61 74 76 75 73 71 70 74 78 78 78 79 81 81 80 82 83 85 85 88 91 87 80 71 58 61 60 59 54 52
29 32 32 37 33 32 31 32 33 29 28 26 29 47 47 63 75 70 70 69 70 69 73 77 76 75 77 76 79 80 81 84 84 81 77 68 66 55 55 57 57 55 48 41
26 27 27 31 33 35 42 39 36 33 36 39 36 32 42 45 65 71 70 69 68 68 69 71 73 74 75 76 77 77 80 81 76 68 59 56 52 51 55 54 52 46 45 43
26 23 25 25 25 27 27 28 31 36 43 42 40 42 44 48 53 55 70 74 69 68 70 72 74 75 76 72 79 74 69 65 52 50 53 51 49 49 50 50 47 44 42 40
18 23 29 30 28 26 29 29 30 31 37 44 42 41 46 50 53 55 58 57 60 66 64 65 68 69 71 73 71 66 53 44 46 46 54 53 46 42 45 44 43 42 37 39
18 23 26 33 29 29 27 26 27 28 34 36 37 44 49 50 47 48 49 53 57 60 62 62 59 55 41 42 44 40 41 45 47 50 51 49 46 41 40 40 39 37 38 39
19 19 24 26 35 32 29 27 28 30 31 31 34 40 43 47 49 49 50 51 51 50 49 44 37 40 39 35 36 39 45 47 48 50 44 44 43 37 36 36 36 36 39 39
23 22 20 22 30 34 38 32 31 29 30 29 31 32 34 37 39 42 45 45 42 38 38 38 37 33 31 34 37 46 47 46 43 44 43 40 39 36 38 38 37 39 41 41
27 27 25 22 22 26 31 34 38 36 32 32 31 31 32 33 35 35 35 35 37 36 34 33 32 31 34 40 44 48 47 43 41 40 39 37 38 37 39 39 39 41 43 43
32 30 26 25 23 21 24 27 30 34 37 37 36 36 35 33 33 33 34 35 34 33 32 32 34 35 42 44 45 42 39 39 37 35 36 34 36 37 38 40 42 43 44 43
34 32 30 26 28 24 26 23 22 30 32 33 32 33 34 35 34 33 35 34 33 32 34 36 36 38 42 39 37 39 39 40 37 34 34 33 36 37 35 40 41 42 44 45
Wind_Direction
213 215 214 218 218 216 216 214 218 219 222 225 226 227 228 231 232 231 230 233 238 242 247 247 246 250 257 257 257 259 261 264 266 265 267 268 275 281 277 281 282 281 286 287
213 212 213 216 217 216 216 216 216 219 221 224 226 231 230 232 234 234 233 232 234 246 240 243 249 252 255 259 257 257 257 262 264 265 269 276 275 276 277 279 282 283 286 285
209 217 208 217 218 217 215 216 219 219 224 225 226 228 231 232 236 236 235 237 238 239 241 244 249 251 252 256 256 258 261 266 267 265 266 270 274 277 280 280 281 282 283 284
206 217 216 215 219 217 219 216 219 219 221 225 226 228 231 232 236 240 239 238 238 243 245 245 246 250 252 255 257 258 259 262 266 269 271 273 273 274 276 279 280 281 283 285
210 185 215 220 220 220 218 217 218 220 222 224 227 227 231 232 234 238 241 240 239 241 246 247 249 250 251 254 258 260 261 265 267 267 269 271 273 277 278 283 282 283 281 282
218 216 209 212 222 221 220 218 218 219 224 225 227 227 229 233 235 238 240 242 244 246 248 248 248 253 253 254 257 260 262 265 268 270 272 274 279 278 279 281 284 283 289 284
188 220 211 219 224 220 220 216 218 220 222 226 230 229 228 231 235 238 240 242 243 245 247 246 252 254 254 255 258 263 266 267 269 273 275 275 277 278 281 284 280 285 288 290
194 190 224 211 226 228 227 221 219 218 223 227 231 232 229 231 234 236 240 242 244 246 247 249 251 253 256 257 259 265 267 268 268 272 275 275 279 281 282 285 286 288 287 288
197 192 205 225 225 229 233 234 222 219 219 225 230 234 235 234 233 236 238 241 244 247 248 250 252 254 256 259 260 263 264 267 270 271 274 277 277 281 282 284 285 286 287 287
198 190 198 203 210 224 220 228 228 223 219 223 228 231 235 237 238 237 237 240 243 246 248 250 252 254 256 259 261 263 265 267 271 272 274 274 277 279 282 282 284 284 288 289
207 212 201 209 214 219 209 211 224 223 222 222 225 232 235 237 239 241 242 243 243 245 247 250 252 255 256 257 259 262 265 267 268 270 272 274 276 279 280 282 283 283 287 291
213 223 228 232 232 228 206 211 222 227 225 224 223 227 234 238 239 241 244 246 247 248 250 251 251 253 255 257 258 261 263 265 268 270 272 275 278 283 283 287 284 289 290 293
210 217 223 216 216 219 190 196 205 215 224 231 227 222 230 236 240 242 244 246 248 250 253 254 255 255 258 259 260 262 264 266 270 274 274 276 282 285 285 287 286 290 292 294
219 224 227 225 219 221 221 222 216 212 221 221 227 223 225 231 238 241 243 245 248 250 252 255 256 259 263 265 266 270 274 274 277 275 279 282 282 284 285 287 289 291 291 294
219 222 224 229 232 227 224 223 223 222 224 223 221 223 222 226 235 239 240 242 245 249 252 256 258 261 263 266 268 269 272 274 277 278 278 280 282 284 287 288 289 291 292 293
217 222 227 224 229 231 232 233 222 228 227 224 223 225 227 225 231 237 241 243 243 247 250 253 256 259 262 265 267 268 271 272 274 276 278 282 284 284 285 286 289 290 293 291
219 221 226 229 234 237 237 229 226 218 215 215 226 227 227 230 229 234 239 243 245 246 248 253 257 260 262 263 266 269 271 273 276 277 281 280 280 281 283 287 291 294 293 297
226 223 224 231 231 234 237 234 234 228 214 215 215 220 223 229 231 232 235 242 245 247 248 252 255 258 261 264 267 269 273 274 276 277 277 278 282 281 283 288 291 286 289 288
231 236 231 227 226 227 231 233 236 236 217 222 213 214 217 223 230 232 237 240 244 246 249 252 255 258 260 264 268 271 273 275 273 272 277 282 282 282 283 288 286 285 289 288
237 236 233 234 230 227 229 229 227 224 223 226 225 220 222 225 229 232 235 236 239 243 248 251 255 258 260 263 267 270 272 267 271 274 277 283 286 276 286 283 285 286 285 290
236 233 232 227 230 226 230 231 229 228 229 220 220 224 227 229 233 234 239 239 242 246 249 253 258 263 264 263 263 263 263 266 270 274 278 285 286 283 284 282 280 285 287 290
232 233 231 228 228 227 228 228 228 224 226 225 228 227 229 231 233 234 234 237 242 247 251 254 253 254 259 260 260 261 262 267 271 277 281 283 280 279 279 277 284 290 288 292
228 229 232 229 231 232 231 229 230 228 231 229 228 229 230 231 234 237 240 243 242 239 243 248 253 253 256 256 261 261 267 269 274 278 282 282 278 273 277 282 288 290 293 296
228 225 227 229 228 227 232 235 236 234 232 233 231 230 233 234 234 234 232 232 234 238 243 244 246 249 252 256 262 266 270 275 280 282 279 279 273 276 278 283 287 289 291 293
243 225 223 221 228 234 231 228 229 232 234 235 236 234 235 234 233 233 232 232 231 230 233 239 243 249 257 261 264 275 276 277 277 287 280 284 275 276 279 283 284 286 289 294
237 228 224 218 222 222 226 226 230 228 227 229 231 231 229 232 232 225 220 216 219 229 241 248 251 255 261 267 273 274 278 281 284 284 294 291 280 278 274 283 284 284 287 289